Location: Eekwerd
(53.3234°N, 6.7984°E)
Time: 07:34:49
(UTC+00:00)

Cosmos 372 Rocket - Pass Details

Date: 15 May 2026
Orbit: 734 x 761 km, 74.1° (Epoch: 6 June)

Event Time Altitude Azimuth Distance (km) Brightness Sun altitude
Rises 21:54:53 0° 333° (NNW) 3,197 9.1 -14.8°
Reaches altitude 10° 21:57:15 10° 334° (NNW) 2,265 7.9 -15.0°
Maximum altitude 22:02:24 89° 64° (ENE) 746 3.9 -15.2°
Enters shadow 22:05:24 25° 155° (SSE) 1,458 4.8 -15.4°
